NKS24J KLAX-KSNA

Flight info

Callsign NKS24J
Flight time N/A
Altitude 5000
Route LAXX1 SLI
Aircraft A20N/M-SDE2E3FGHIRWXY/LB1

Departure

Time 2026-04-26 01:39
Airport Los Angeles International Airport (KLAX)

Arrival

Time N/A
Airport John Wayne Orange County International Airport (KSNA)
Time Latitude Longitude Altitude Speed Heading
2026-04-26 01:07 33.94262 -118.42988 129 ft 0 kts 83°
2026-04-26 01:21 33.94260 -118.43005 124 ft 2 kts 84°
2026-04-26 01:21 33.94259 -118.43025 129 ft 2 kts 86°
2026-04-26 01:21 33.94258 -118.43044 125 ft 2 kts 90°
2026-04-26 01:22 33.94260 -118.43064 127 ft 2 kts 111°
2026-04-26 01:22 33.94266 -118.43075 127 ft 2 kts 156°
2026-04-26 01:22 33.94275 -118.43078 124 ft 1 kts 171°
2026-04-26 01:22 33.94276 -118.43078 124 ft 0 kts 171°
2026-04-26 01:23 33.94274 -118.43078 129 ft 2 kts 172°
2026-04-26 01:24 33.94246 -118.43074 126 ft 6 kts 174°
2026-04-26 01:24 33.94193 -118.43054 126 ft 10 kts 138°
2026-04-26 01:24 33.94187 -118.42971 127 ft 12 kts 83°
2026-04-26 01:24 33.94199 -118.42852 125 ft 17 kts 82°
2026-04-26 01:25 33.94184 -118.42724 128 ft 13 kts 141°
2026-04-26 01:25 33.94087 -118.42695 127 ft 16 kts 173°
2026-04-26 01:25 33.93968 -118.42677 125 ft 18 kts 172°
2026-04-26 01:25 33.93831 -118.42657 126 ft 21 kts 173°
2026-04-26 01:26 33.93689 -118.42637 127 ft 20 kts 173°
2026-04-26 01:26 33.93616 -118.42575 126 ft 15 kts 102°
2026-04-26 01:26 33.93629 -118.42438 129 ft 18 kts 83°
2026-04-26 01:26 33.93645 -118.42271 129 ft 22 kts 82°
2026-04-26 01:27 33.93667 -118.42074 124 ft 25 kts 83°
2026-04-26 01:27 33.93689 -118.41851 129 ft 28 kts 83°
2026-04-26 01:27 33.93714 -118.41605 126 ft 31 kts 84°
2026-04-26 01:27 33.93741 -118.41343 127 ft 32 kts 83°
2026-04-26 01:28 33.93770 -118.41069 129 ft 34 kts 83°
2026-04-26 01:28 33.93799 -118.40782 125 ft 36 kts 83°
2026-04-26 01:28 33.93829 -118.40484 127 ft 37 kts 83°
2026-04-26 01:28 33.93862 -118.40173 128 ft 38 kts 82°
2026-04-26 01:29 33.93894 -118.39853 129 ft 39 kts 83°
2026-04-26 01:29 33.93922 -118.39592 129 ft 30 kts 83°
2026-04-26 01:29 33.93944 -118.39366 125 ft 21 kts 82°
2026-04-26 01:29 33.93962 -118.39198 127 ft 19 kts 83°
2026-04-26 01:30 33.93977 -118.39046 129 ft 17 kts 83°
2026-04-26 01:30 33.93990 -118.38909 129 ft 16 kts 83°
2026-04-26 01:30 33.94003 -118.38787 127 ft 14 kts 82°
2026-04-26 01:30 33.94014 -118.38679 126 ft 12 kts 83°
2026-04-26 01:31 33.94024 -118.38585 128 ft 11 kts 83°
2026-04-26 01:31 33.94032 -118.38503 128 ft 9 kts 83°
2026-04-26 01:31 33.94040 -118.38433 125 ft 8 kts 83°
2026-04-26 01:31 33.94044 -118.38374 128 ft 6 kts 94°
2026-04-26 01:32 33.94038 -118.38356 125 ft 0 kts 118°
2026-04-26 01:33 33.94038 -118.38342 124 ft 4 kts 81°
2026-04-26 01:33 33.94055 -118.38280 127 ft 11 kts 77°
2026-04-26 01:33 33.94068 -118.38157 128 ft 14 kts 83°
2026-04-26 01:34 33.94068 -118.38150 128 ft 0 kts 83°
2026-04-26 01:35 33.94070 -118.38137 126 ft 5 kts 83°
2026-04-26 01:35 33.94076 -118.38075 128 ft 6 kts 82°
2026-04-26 01:35 33.94077 -118.38049 128 ft 0 kts 95°
2026-04-26 01:35 33.94068 -118.38023 125 ft 4 kts 139°
2026-04-26 01:36 33.94067 -118.38023 125 ft 0 kts 143°
2026-04-26 01:37 33.93978 -118.38042 126 ft 27 kts 248°
2026-04-26 01:37 33.93952 -118.38340 124 ft 37 kts 263°
2026-04-26 01:37 33.93946 -118.38396 129 ft 0 kts 262°
2026-04-26 01:38 33.93945 -118.38402 129 ft 9 kts 262°
2026-04-26 01:39 33.93907 -118.38766 128 ft 80 kts 263°
2026-04-26 01:39 33.93809 -118.39729 125 ft 150 kts 262°
2026-04-26 01:39 33.93660 -118.41123 413 ft 177 kts 261°
2026-04-26 01:39 33.93500 -118.42558 1356 ft 165 kts 262°
2026-04-26 01:40 33.93334 -118.43903 2237 ft 163 kts 260°
2026-04-26 01:40 33.92937 -118.45241 2706 ft 182 kts 238°
2026-04-26 01:40 33.92056 -118.46467 3014 ft 203 kts 230°
2026-04-26 01:40 33.91104 -118.47798 3479 ft 218 kts 232°
2026-04-26 01:41 33.90124 -118.49244 3924 ft 235 kts 233°
2026-04-26 01:41 33.89067 -118.50848 4482 ft 252 kts 233°
2026-04-26 01:41 33.87975 -118.52524 4873 ft 255 kts 233°
2026-04-26 01:41 33.86885 -118.54206 4957 ft 255 kts 233°
2026-04-26 01:42 33.85641 -118.55733 4957 ft 258 kts 214°
2026-04-26 01:42 33.83964 -118.56509 4964 ft 262 kts 195°
2026-04-26 01:42 33.82163 -118.56903 4961 ft 264 kts 192°
2026-04-26 01:42 33.80344 -118.57240 4963 ft 265 kts 191°
2026-04-26 01:43 33.78519 -118.57575 4970 ft 265 kts 191°
2026-04-26 01:43 33.76696 -118.57908 4967 ft 265 kts 191°
2026-04-26 01:43 33.74875 -118.58239 4959 ft 264 kts 191°
2026-04-26 01:43 33.73057 -118.58570 4961 ft 264 kts 191°
2026-04-26 01:44 33.71260 -118.58894 4958 ft 264 kts 191°
2026-04-26 01:44 33.69432 -118.59198 4969 ft 266 kts 189°
2026-04-26 01:44 33.67586 -118.58977 4972 ft 272 kts 162°
2026-04-26 01:44 33.65995 -118.57739 4967 ft 277 kts 134°
2026-04-26 01:45 33.65065 -118.55727 4966 ft 280 kts 104°
2026-04-26 01:45 33.65059 -118.53399 4973 ft 281 kts 77°
2026-04-26 01:45 33.65609 -118.51141 4966 ft 283 kts 70°
2026-04-26 01:45 33.66259 -118.48909 4971 ft 284 kts 70°
2026-04-26 01:46 33.66912 -118.46673 4968 ft 284 kts 70°
2026-04-26 01:46 33.67556 -118.44431 4968 ft 284 kts 70°
2026-04-26 01:46 33.68191 -118.42186 4967 ft 284 kts 70°
2026-04-26 01:46 33.68820 -118.39943 4967 ft 283 kts 70°
2026-04-26 01:47 33.69445 -118.37703 4965 ft 284 kts 71°
2026-04-26 01:47 33.70072 -118.35450 4962 ft 284 kts 71°
2026-04-26 01:47 33.70695 -118.33206 4964 ft 283 kts 71°
2026-04-26 01:47 33.71308 -118.30992 4959 ft 282 kts 71°
2026-04-26 01:48 33.71935 -118.28722 4955 ft 283 kts 71°
2026-04-26 01:48 33.72547 -118.26508 4956 ft 283 kts 71°
2026-04-26 01:48 33.73168 -118.24260 4951 ft 284 kts 71°
2026-04-26 01:48 33.73787 -118.22015 4937 ft 281 kts 71°
2026-04-26 01:49 33.74391 -118.19822 4853 ft 270 kts 71°
2026-04-26 01:49 33.74972 -118.17714 4718 ft 260 kts 72°
2026-04-26 01:49 33.75527 -118.15696 4611 ft 249 kts 72°
2026-04-26 01:49 33.76063 -118.13751 4435 ft 242 kts 71°
2026-04-26 01:50 33.76588 -118.11840 4156 ft 238 kts 72°
2026-04-26 01:50 33.77103 -118.09962 3906 ft 235 kts 72°
2026-04-26 01:50 33.77615 -118.08096 3611 ft 234 kts 71°
2026-04-26 01:50 33.77958 -118.06189 3322 ft 232 kts 91°
2026-04-26 01:51 33.77615 -118.04347 3032 ft 224 kts 120°
2026-04-26 01:51 33.76819 -118.02762 2756 ft 221 kts 127°
2026-04-26 01:51 33.75941 -118.01247 2440 ft 220 kts 128°
2026-04-26 01:51 33.75034 -117.99709 2279 ft 234 kts 128°
2026-04-26 01:52 33.74098 -117.98112 2187 ft 238 kts 127°
2026-04-26 01:52 33.73442 -117.96291 2078 ft 242 kts 99°
2026-04-26 01:52 33.73640 -117.94279 1987 ft 243 kts 71°
2026-04-26 01:52 33.74369 -117.92432 2053 ft 247 kts 63°
2026-04-26 01:53 33.75185 -117.90646 2143 ft 247 kts 61°
2026-04-26 01:53 33.76020 -117.88834 2290 ft 248 kts 61°
2026-04-26 01:53 33.76856 -117.87026 2422 ft 246 kts 61°
2026-04-26 01:53 33.77696 -117.85223 2544 ft 247 kts 61°
2026-04-26 01:54 33.78537 -117.83417 2677 ft 248 kts 62°
2026-04-26 01:54 33.79114 -117.81495 2799 ft 244 kts 87°
2026-04-26 01:54 33.78837 -117.79531 2912 ft 238 kts 120°
2026-04-26 01:54 33.77782 -117.78057 2965 ft 232 kts 152°
2026-04-26 01:55 33.76292 -117.77440 2959 ft 227 kts 175°
2026-04-26 01:55 33.74741 -117.77633 2973 ft 223 kts 202°
2026-04-26 01:55 33.73357 -117.78425 2976 ft 224 kts 210°
2026-04-26 01:55 33.71984 -117.79357 2971 ft 224 kts 211°
2026-04-26 01:56 33.70650 -117.80271 2972 ft 223 kts 212°
2026-04-26 01:56 33.69301 -117.81200 2973 ft 223 kts 211°
2026-04-26 01:56 33.67952 -117.82136 2967 ft 223 kts 212°
2026-04-26 01:56 33.66606 -117.83062 2961 ft 223 kts 211°
2026-04-26 01:57 33.65241 -117.83986 2973 ft 226 kts 211°
2026-04-26 01:57 33.63870 -117.84919 2970 ft 227 kts 211°
2026-04-26 01:57 33.62495 -117.85848 2972 ft 227 kts 211°
2026-04-26 01:57 33.61118 -117.86778 2972 ft 227 kts 211°
2026-04-26 01:58 33.59741 -117.87710 2972 ft 227 kts 211°
2026-04-26 01:58 33.58376 -117.88633 2970 ft 227 kts 211°
2026-04-26 01:58 33.56996 -117.89560 2970 ft 226 kts 211°
2026-04-26 01:58 33.55626 -117.90483 2969 ft 226 kts 211°
2026-04-26 01:59 33.54288 -117.91472 2969 ft 225 kts 219°
2026-04-26 01:59 33.52991 -117.92517 2970 ft 225 kts 207°
2026-04-26 01:59 33.51592 -117.93361 2971 ft 225 kts 213°
2026-04-26 01:59 33.50357 -117.94495 2963 ft 224 kts 233°
2026-04-26 02:00 33.49784 -117.96160 2969 ft 221 kts 265°
2026-04-26 02:00 33.50084 -117.97948 2971 ft 224 kts 298°
2026-04-26 02:00 33.51183 -117.99269 2969 ft 230 kts 330°
2026-04-26 02:00 33.52745 -117.99683 2968 ft 235 kts
2026-04-26 02:01 33.54292 -117.99029 2973 ft 241 kts 35°
2026-04-26 02:01 33.55351 -117.97493 2972 ft 244 kts 67°
2026-04-26 02:01 33.55607 -117.95502 2967 ft 243 kts 100°
2026-04-26 02:01 33.54977 -117.93658 2973 ft 239 kts 132°
2026-04-26 02:02 33.53674 -117.92509 2969 ft 231 kts 165°
2026-04-26 02:02 33.52115 -117.92380 2970 ft 225 kts 197°